[[{"header":{"parameterUnit":"m.s-1","parameterCategory":2,"la1":30.2991,"la2":30.254,"lo1":-89.0895,"lo2":-89.0444,"dy":0.0017,"dx":0.0017,"nx":28,"ny":28,"refTime":"2024-08-31T21:00:00:Z","depth":"0","parameterNumber":2,"parameterNumberName":"U-component_of_CURRENTS"},"data":[0,0,0,0,0,0,0,0,0,0,0,0,0,0,0,0,0,0,0,0,0,0,0,0,0,0,0,0,0,0,0,0,0,0,0,0,0,0,0,0,0,0,0,0,0,0,0,0,0,0,0,0,0,0,0,0,0,0,-0.2834,-0.2834,0,-0.279,-0.2789,-0.2789,-0.2754,-0.2754,-0.2754,-0.2755,-0.2667,-0.2665,-0.2662,0,0,0,0,0,0,0,0,0,0,0,0,0,-0.2841,-0.2841,-0.2834,-0.2834,-0.2834,-0.279,-0.2789,-0.2788,-0.2754,-0.2754,-0.2755,-0.2755,-0.2668,-0.2665,-0.2662,0,0,0,0,0,0,0,0,0,0,0,0,0,-0.2818,-0.2841,-0.2834,-0.2815,-0.2813,-0.2791,-0.2789,-0.2788,-0.2754,-0.2754,-0.2755,-0.2755,-0.2669,-0.2665,-0.2662,-0.2637,0,0,-0.2651,-0.2649,0,0,0,0,0,0,0,0,-0.2819,-0.2817,-0.2818,-0.2816,-0.2814,-0.2782,-0.276,-0.2737,-0.2754,-0.2772,-0.2755,-0.2755,-0.2704,-0.2697,-0.2683,-0.2633,-0.2629,-0.265,-0.2648,-0.2646,-0.2645,0,0,0,0,0,0,0,-0.2821,-0.2819,-0.2812,-0.2818,-0.2815,-0.2793,-0.2789,-0.2755,-0.2734,-0.277,-0.2769,-0.2771,-0.2702,-0.2687,-0.2681,-0.2628,-0.265,-0.2647,-0.2645,-0.2643,-0.2573,-0.2573,0,0,0,0,0,0,-0.2838,-0.282,-0.2814,-0.2811,-0.2822,-0.2793,-0.2789,-0.2788,-0.2735,-0.2728,-0.2771,-0.277,-0.2693,-0.2685,-0.2678,-0.2657,-0.2647,-0.2643,-0.2641,-0.2573,-0.2573,-0.2574,0,0,0,0,0,0,-0.2838,-0.2837,-0.2815,-0.2818,-0.2815,-0.2794,-0.2792,-0.2788,-0.2769,-0.2737,-0.2728,-0.2758,-0.2693,-0.2683,-0.2653,-0.2653,-0.2642,-0.2638,-0.2572,-0.2573,-0.2573,-0.2609,0,0,0,0,0,0,-0.2838,-0.2838,-0.2829,-0.282,-0.2815,-0.2804,-0.2793,-0.2787,-0.2772,-0.277,-0.2722,-0.2715,-0.2692,-0.2658,-0.2649,-0.2648,-0.2635,-0.2572,-0.2573,-0.2573,-0.2608,-0.2611,-0.2613,0,0,0,0,0,-0.2839,-0.2822,-0.2829,-0.2828,-0.2809,-0.2804,-0.2799,-0.2782,-0.2772,-0.2764,-0.2737,-0.2716,-0.2656,-0.2655,-0.2645,-0.2643,-0.2572,-0.2573,-0.2573,-0.2606,-0.261,-0.2613,0,0,0,0,0,0,-0.281,-0.2817,-0.2824,-0.2809,-0.2813,-0.28,-0.2784,-0.278,-0.2751,-0.2745,-0.2713,-0.2703,-0.268,-0.2656,-0.2657,-0.2626,-0.2613,-0.2611,-0.2641,-0.2645,-0.2648,-0.2659,-0.2632,0,0,0,0,0,-0.2806,-0.2796,-0.2811,-0.2795,-0.2802,-0.2795,-0.2786,-0.2783,-0.2765,-0.2752,-0.2726,-0.2697,-0.2674,-0.2656,-0.2632,-0.2606,-0.2599,-0.2601,-0.2604,-0.2606,-0.2609,-0.2618,-0.2622,-0.2576,-0.2576,-0.2576,0,0,-0.2785,-0.2791,-0.2781,-0.2788,-0.2786,-0.2804,-0.2787,-0.278,-0.2785,-0.2746,-0.2729,-0.2704,-0.2671,-0.2651,-0.2638,-0.2629,-0.2614,-0.2607,-0.2609,-0.2611,-0.2619,-0.2624,-0.2628,-0.2576,-0.2576,-0.2576,0,0,-0.2762,-0.2753,-0.2756,-0.277,-0.2785,-0.2789,-0.2792,-0.2792,-0.2779,-0.2766,-0.2745,-0.2723,-0.2681,-0.2664,-0.2648,-0.265,-0.2632,-0.2642,-0.2659,-0.2667,-0.2671,-0.2675,-0.2665,-0.2667,-0.264,-0.264,-0.264,0,-0.2745,-0.2759,-0.2752,-0.2778,-0.2793,-0.279,-0.2815,-0.2801,-0.2789,-0.2783,-0.2767,-0.2724,-0.269,-0.2675,-0.2675,-0.2657,-0.2655,-0.2648,-0.2672,-0.2676,-0.2679,-0.2667,-0.2669,-0.2642,-0.2642,-0.2641,-0.2641,0,-0.2746,-0.2764,-0.2766,-0.2805,-0.2812,-0.2828,-0.2838,-0.2833,-0.2821,-0.2815,-0.2794,-0.2753,-0.2733,-0.2716,-0.2689,-0.2693,-0.2682,-0.2679,-0.2666,-0.2686,-0.2672,-0.2674,-0.2644,-0.2644,-0.2643,-0.2643,0,0,-0.2719,-0.2762,-0.277,-0.2805,-0.2837,-0.2849,-0.2855,-0.287,-0.2881,-0.2849,-0.2857,-0.2803,-0.2785,-0.2766,-0.2734,-0.2727,-0.2735,-0.2711,-0.271,-0.2704,-0.2745,-0.2655,-0.2648,-0.2742,-0.2743,-0.2743,-0.2724,0,-0.274,-0.2794,-0.2806,-0.2858,-0.2896,-0.2903,-0.2914,-0.2918,-0.291,-0.2913,-0.2865,-0.2855,-0.2803,-0.2795,-0.2781,-0.275,-0.2742,-0.274,-0.2723,-0.2722,-0.2643,-0.2648,-0.2553,-0.2521,-0.2725,-0.2725,-0.2726,0,-0.2764,-0.2803,-0.2854,-0.2914,-0.293,-0.295,-0.2983,-0.2992,-0.2988,-0.2981,-0.296,-0.2928,-0.2895,-0.2861,-0.2814,-0.2817,-0.2784,-0.2757,-0.2756,-0.2662,-0.2635,-0.2535,-0.2516,-0.2487,-0.2728,-0.2728,-0.2728,0,-0.2781,-0.2844,-0.2884,-0.2906,-0.2961,-0.2975,-0.2999,-0.3009,-0.3021,-0.3025,-0.3036,-0.2995,-0.2973,-0.2933,-0.2843,-0.2844,-0.2797,-0.2796,-0.2684,-0.2677,-0.2586,-0.2569,-0.2538,-0.2781,-0.2781,-0.2781,-0.2781,0,-0.2822,-0.2862,-0.2892,-0.2928,-0.2975,-0.2998,-0.304,-0.3058,-0.3077,-0.3088,-0.3069,-0.3045,-0.2993,-0.2943,-0.2876,-0.2765,-0.2821,-0.2683,-0.2667,-0.2592,-0.2577,-0.2538,-0.2539,-0.2781,-0.2781,-0.2781,-0.2781,0,-0.2851,-0.2869,-0.2925,-0.2976,-0.2988,-0.3022,-0.3072,-0.3101,-0.3119,-0.3136,-0.3137,-0.3093,-0.2994,-0.2928,-0.285,-0.2793,-0.2649,-0.2663,-0.2562,-0.2533,-0.2389,-0.2395,-0.2325,-0.2254,-0.2544,-0.2542,-0.254,0,-0.2876,-0.2902,-0.2955,-0.2975,-0.3,-0.3045,-0.3075,-0.3114,-0.3138,-0.3132,-0.3133,-0.3052,-0.2939,-0.2788,-0.2673,-0.255,-0.2525,-0.2428,-0.2405,-0.236,-0.2357,-0.2361,-0.2307,-0.2301,-0.2298,-0.2295,-0.2292,0,-0.2909,-0.2911,-0.2938,-0.2988,-0.3019,-0.3056,-0.3097,-0.3107,-0.313,-0.3112,-0.3023,-0.2924,-0.2784,-0.2566,-0.2434,-0.2357,-0.2353,-0.2359,-0.2351,-0.2187,-0.2153,-0.2083,-0.2334,-0.2265,-0.2267,-0.2269,-0.2271,-0.2272,-0.2891,-0.291,-0.2918,-0.2958,-0.2994,-0.299,-0.2956,-0.2974,-0.2924,-0.2794,-0.2832,-0.2628,-0.2512,-0.2263,-0.2208,-0.2083,-0.2114,-0.2024,-0.2043,-0.2058,-0.1961,-0.2132,-0.202,-0.2021,-0.2022,-0.2023,-0.2024,0,-0.2828,-0.2842,-0.2888,-0.2881,-0.2875,-0.2923,-0.2902,-0.2802,-0.2651,-0.2555,-0.2414,-0.2255,-0.2061,-0.1996,-0.1885,-0.1813,-0.1794,-0.1766,-0.1773,-0.1738,-0.1919,-0.1878,-0.1683,-0.1683,-0.1683,-0.1683,-0.1683,-0.1683,-0.2783,-0.2777,-0.28,-0.2728,-0.2725,-0.2616,-0.2553,-0.2398,-0.2276,-0.197,-0.1841,-0.1817,-0.1788,-0.184,-0.1732,-0.1668,-0.1627,-0.1561,-0.1577,-0.1738,-0.1765,-0.1791,-0.1754,-0.1536,-0.1536,-0.1348,-0.1346,-0.1345]},{"header":{"parameterUnit":"m.s-1","parameterCategory":2,"la1":30.2991,"la2":30.254,"lo1":-89.0895,"lo2":-89.0444,"dy":0.0017,"dx":0.0017,"nx":28,"ny":28,"refTime":"2024-08-31T21:00:00:Z","depth":"0","parameterNumber":3,"parameterNumberName":"V-component_of_CURRENTS"},"data":[0,0,0,0,0,0,0,0,0,0,0,0,0,0,0,0,0,0,0,0,0,0,0,0,0,0,0,0,0,0,0,0,0,0,0,0,0,0,0,0,0,0,0,0,0,0,0,0,0,0,0,0,0,0,0,0,0,0,-0.0428,-0.0427,0,-0.0318,-0.0317,-0.0315,-0.0275,-0.0276,-0.0276,-0.0277,-0.0165,-0.0161,-0.0158,0,0,0,0,0,0,0,0,0,0,0,0,0,-0.059,-0.0587,-0.0428,-0.0427,-0.0425,-0.0318,-0.0317,-0.0315,-0.0275,-0.0276,-0.0276,-0.0277,-0.0166,-0.0162,-0.0158,0,0,0,0,0,0,0,0,0,0,0,0,0,-0.0503,-0.0586,-0.0428,-0.0393,-0.0389,-0.0319,-0.0317,-0.0315,-0.0275,-0.0276,-0.0276,-0.0277,-0.0167,-0.0162,-0.0157,-0.0113,0,0,-0.0142,-0.0139,0,0,0,0,0,0,0,0,-0.0508,-0.0497,-0.04,-0.0395,-0.0391,-0.0312,-0.0333,-0.0247,-0.0275,-0.0318,-0.0277,-0.0277,-0.0213,-0.0205,-0.0182,-0.0108,-0.0103,-0.0141,-0.0138,-0.0136,-0.0135,0,0,0,0,0,0,0,-0.0514,-0.0502,-0.0384,-0.0398,-0.0393,-0.0378,-0.0367,-0.0316,-0.0263,-0.0314,-0.0311,-0.0299,-0.0211,-0.0187,-0.0179,-0.0101,-0.0141,-0.0137,-0.0134,-0.0132,0.0004,0.0004,0,0,0,0,0,0,-0.0528,-0.0507,-0.0387,-0.0381,-0.0453,-0.0375,-0.0362,-0.0336,-0.0263,-0.0253,-0.0299,-0.0298,-0.0195,-0.0185,-0.0175,-0.0133,-0.0136,-0.0131,-0.0128,0.0003,0.0004,0.0005,0,0,0,0,0,0,-0.0532,-0.0518,-0.0392,-0.0443,-0.0426,-0.0372,-0.0342,-0.0333,-0.031,-0.0252,-0.0242,-0.0286,-0.0195,-0.0182,-0.0129,-0.0128,-0.0129,-0.0124,0.0003,0.0004,0.0004,-0.0041,0,0,0,0,0,0,-0.0537,-0.052,-0.0503,-0.0443,-0.0424,-0.0359,-0.0342,-0.0331,-0.0302,-0.03,-0.0237,-0.0227,-0.0195,-0.0137,-0.0124,-0.0121,-0.012,0.0002,0.0003,0.0004,-0.004,-0.0042,-0.0043,0,0,0,0,0,-0.0543,-0.0516,-0.0502,-0.0488,-0.0403,-0.0359,-0.0347,-0.0311,-0.0301,-0.0292,-0.0246,-0.0229,-0.0122,-0.0132,-0.0117,-0.0113,0.0001,0.0003,0.0004,-0.0039,-0.0041,-0.0043,0,0,0,0,0,0,-0.0578,-0.0508,-0.0492,-0.0445,-0.0411,-0.0353,-0.0336,-0.0311,-0.0266,-0.0265,-0.0213,-0.0199,-0.0154,-0.0123,-0.0135,-0.007,-0.006,-0.0056,-0.0098,-0.01,-0.0101,-0.0123,-0.0116,0,0,0,0,0,-0.0578,-0.054,-0.0485,-0.0452,-0.0436,-0.0387,-0.0363,-0.0341,-0.0295,-0.0276,-0.0231,-0.0183,-0.0135,-0.0111,-0.0065,-0.0023,0.0013,-0.0012,-0.0014,-0.0016,-0.0022,0.0025,0.0027,0.0009,0.0009,0.0009,0,0,-0.0586,-0.0541,-0.0522,-0.0457,-0.0427,-0.0409,-0.0374,-0.0344,-0.0327,-0.027,-0.023,-0.0183,-0.0124,-0.0081,-0.0059,-0.0056,0.0015,-0.0014,-0.0016,-0.0022,0.0026,0.0028,0.0029,0.001,0.0009,0.0009,0,0,-0.0595,-0.0543,-0.0526,-0.0498,-0.0454,-0.0422,-0.0418,-0.0363,-0.0336,-0.029,-0.0247,-0.02,-0.0127,-0.0087,-0.0056,-0.0036,0.0007,-0.0022,-0.0047,-0.0001,0.0,0.0002,0.0072,0.008,-0.0025,-0.0025,-0.0025,0,-0.0619,-0.0575,-0.0518,-0.0502,-0.0486,-0.0435,-0.0431,-0.039,-0.0326,-0.03,-0.0289,-0.0177,-0.0132,-0.0074,-0.0071,-0.0041,0.0,-0.0048,-0.0005,-0.0002,0.0,0.0072,0.0081,-0.0027,-0.0027,-0.0027,-0.0027,0,-0.0616,-0.0591,-0.0581,-0.0543,-0.0517,-0.0504,-0.0451,-0.042,-0.0383,-0.034,-0.0276,-0.0208,-0.0147,-0.0123,-0.0089,-0.0047,-0.0016,-0.0012,-0.0006,-0.0001,0.0075,0.0085,-0.003,-0.0029,-0.0029,-0.0028,0,0,-0.0667,-0.0596,-0.0599,-0.0594,-0.054,-0.0525,-0.0489,-0.044,-0.0413,-0.0352,-0.0312,-0.0232,-0.0196,-0.0159,-0.0108,-0.0069,-0.0008,-0.004,-0.0036,0.002,0.0115,0.015,0.0166,0.0001,0.0002,0.0002,0.0169,0,-0.0699,-0.0683,-0.0631,-0.0634,-0.0631,-0.0571,-0.054,-0.0488,-0.0429,-0.0374,-0.0299,-0.0239,-0.0207,-0.0175,-0.0133,-0.0032,0.0015,-0.0052,0.0111,0.0116,0.0137,0.0177,0.0165,0.0313,0.018,0.0182,0.0183,0,-0.0729,-0.0713,-0.0718,-0.068,-0.0672,-0.0662,-0.0609,-0.0574,-0.0478,-0.0426,-0.0359,-0.0286,-0.0199,-0.0186,-0.0028,-0.0071,0.0011,0.0082,0.009,0.014,0.017,0.0284,0.0338,0.0487,0.02,0.0199,0.0197,0,-0.0813,-0.078,-0.0787,-0.0777,-0.0722,-0.0713,-0.0683,-0.0599,-0.056,-0.0461,-0.0407,-0.0303,-0.0226,-0.013,0.0029,0.0002,0.0207,0.0189,0.03,0.0306,0.0337,0.0342,0.0541,0.0282,0.0282,0.0281,0.0281,0,-0.0875,-0.0884,-0.0829,-0.084,-0.0853,-0.0786,-0.0771,-0.0719,-0.0626,-0.0554,-0.0448,-0.0359,-0.021,-0.0065,0.0038,0.0225,0.0222,0.031,0.0349,0.0325,0.0326,0.0489,0.055,0.0288,0.0286,0.0285,0.0284,0,-0.0977,-0.0933,-0.0951,-0.0908,-0.0898,-0.0918,-0.0848,-0.0817,-0.0712,-0.0614,-0.0576,-0.0384,-0.0187,-0.0023,0.0177,0.0263,0.051,0.0476,0.0454,0.0485,0.0688,0.0745,0.0975,0.1069,0.0614,0.0616,0.0617,0,-0.1021,-0.1042,-0.1031,-0.105,-0.1039,-0.1031,-0.1009,-0.0898,-0.0833,-0.061,-0.0556,-0.0338,-0.0183,0.0128,0.0314,0.0516,0.0623,0.0643,0.057,0.0718,0.0811,0.0842,0.0907,0.0614,0.0615,0.0616,0.0617,0,-0.1127,-0.1126,-0.1144,-0.1187,-0.1186,-0.1143,-0.1084,-0.1036,-0.085,-0.074,-0.0531,-0.0396,-0.0079,0.0156,0.043,0.0543,0.0747,0.0671,0.0829,0.0835,0.0879,0.0981,0.0508,0.0627,0.0626,0.0626,0.0625,0.0625,-0.1211,-0.1266,-0.1291,-0.1329,-0.1307,-0.122,-0.1168,-0.1057,-0.0933,-0.0712,-0.0571,-0.0364,0.0009,0.0372,0.0544,0.088,0.0847,0.0944,0.1009,0.1034,0.11,0.066,0.0809,0.0809,0.0809,0.0809,0.0809,0,-0.1325,-0.1367,-0.142,-0.1417,-0.1376,-0.1326,-0.1184,-0.1087,-0.0925,-0.0754,-0.0585,-0.0196,0.015,0.0522,0.0987,0.1189,0.1238,0.1306,0.1348,0.1403,0.1023,0.0995,0.1184,0.1184,0.1184,0.1184,0.1184,0.1184,-0.139,-0.1484,-0.1507,-0.1474,-0.143,-0.1303,-0.1201,-0.106,-0.0915,-0.0641,-0.0423,-0.0268,0.028,0.1028,0.1483,0.1536,0.1744,0.1721,0.1862,0.1587,0.1557,0.1529,0.1519,0.1816,0.1816,0.2199,0.2203,0.2206]}],[{"header":{"parameterUnit":"m.s-1","parameterCategory":2,"la1":30.2991,"la2":30.254,"lo1":-89.0895,"lo2":-89.0444,"dy":0.0017,"dx":0.0017,"nx":28,"ny":28,"refTime":"2024-08-31T21:00:00:Z","depth":"2","parameterNumber":2,"parameterNumberName":"U-component_of_CURRENTS"},"data":[0,0,0,0,0,0,0,0,0,0,0,0,0,0,0,0,0,0,0,0,0,0,0,0,0,0,0,0,0,0,0,0,0,0,0,0,0,0,0,0,0,0,0,0,0,0,0,0,0,0,0,0,0,0,0,0,0,0,-0.2394,-0.2394,0,-0.2417,-0.2418,-0.2419,-0.2456,-0.2456,-0.2457,-0.2457,-0.2452,-0.2452,-0.2451,0,0,0,0,0,0,0,0,0,0,0,0,0,-0.2419,-0.2418,-0.2394,-0.2394,-0.2394,-0.2417,-0.2418,-0.2419,-0.2456,-0.2456,-0.2457,-0.2457,-0.2452,-0.2452,-0.2451,0,0,0,0,0,0,0,0,0,0,0,0,0,-0.2425,-0.2418,-0.2394,-0.2413,-0.2414,-0.2417,-0.2418,-0.2419,-0.2456,-0.2456,-0.2457,-0.2457,-0.2452,-0.2452,-0.2451,-0.2436,0,0,-0.2449,-0.2449,0,0,0,0,0,0,0,0,-0.2424,-0.2424,-0.241,-0.2411,-0.2413,-0.2431,-0.2425,-0.2422,-0.2456,-0.2444,-0.2457,-0.2457,-0.244,-0.244,-0.2449,-0.2436,-0.2436,-0.2449,-0.2448,-0.2448,-0.2448,0,0,0,0,0,0,0,-0.2424,-0.2424,-0.2407,-0.241,-0.2412,-0.2432,-0.2434,-0.2425,-0.2441,-0.2445,-0.2447,-0.2443,-0.2441,-0.2449,-0.2449,-0.2436,-0.2449,-0.2448,-0.2448,-0.2448,-0.2449,-0.2449,0,0,0,0,0,0,-0.2411,-0.2423,-0.2406,-0.2407,-0.2416,-0.2431,-0.2433,-0.2428,-0.2442,-0.2443,-0.2443,-0.2445,-0.245,-0.245,-0.2449,-0.2472,-0.2448,-0.2448,-0.2447,-0.2448,-0.2449,-0.2449,0,0,0,0,0,0,-0.2411,-0.2409,-0.2405,-0.2413,-0.2414,-0.2429,-0.2424,-0.2428,-0.2449,-0.244,-0.2442,-0.2461,-0.2451,-0.245,-0.246,-0.247,-0.2447,-0.2447,-0.2448,-0.2448,-0.2449,-0.2492,0,0,0,0,0,0,-0.2412,-0.2409,-0.2398,-0.2412,-0.2412,-0.2406,-0.2423,-0.2428,-0.2444,-0.2447,-0.2455,-0.2455,-0.2451,-0.2462,-0.246,-0.2469,-0.2446,-0.2447,-0.2448,-0.2449,-0.249,-0.2494,-0.2497,0,0,0,0,0,-0.2413,-0.2398,-0.2398,-0.2396,-0.2398,-0.2405,-0.2408,-0.2424,-0.2444,-0.2447,-0.2467,-0.2455,-0.2465,-0.2462,-0.2459,-0.2468,-0.2447,-0.2448,-0.2449,-0.2488,-0.2493,-0.2497,0,0,0,0,0,0,-0.2388,-0.24,-0.2401,-0.2385,-0.2392,-0.241,-0.2412,-0.243,-0.245,-0.2458,-0.2463,-0.2463,-0.2477,-0.2464,-0.2461,-0.247,-0.2453,-0.2453,-0.2483,-0.2488,-0.2491,-0.2495,-0.2446,0,0,0,0,0,-0.2378,-0.2381,-0.2387,-0.2374,-0.238,-0.24,-0.2406,-0.2419,-0.2436,-0.2447,-0.2463,-0.2472,-0.2476,-0.2477,-0.2477,-0.248,-0.2472,-0.2483,-0.2487,-0.249,-0.2491,-0.2502,-0.2507,-0.2452,-0.2452,-0.2452,0,0,-0.2357,-0.2369,-0.2365,-0.2371,-0.2382,-0.2407,-0.2407,-0.2418,-0.2447,-0.244,-0.249,-0.2486,-0.2481,-0.2493,-0.2496,-0.2485,-0.2499,-0.2491,-0.2494,-0.2494,-0.2503,-0.2509,-0.2514,-0.2453,-0.2453,-0.2453,0,0,-0.2354,-0.2338,-0.2357,-0.2372,-0.2391,-0.2403,-0.241,-0.2439,-0.2458,-0.2489,-0.2498,-0.2506,-0.2517,-0.252,-0.2519,-0.254,-0.2521,-0.2534,-0.2554,-0.2565,-0.2569,-0.2573,-0.2562,-0.2564,-0.2534,-0.2534,-0.2534,0,-0.2333,-0.236,-0.2359,-0.2394,-0.2411,-0.241,-0.2443,-0.2458,-0.2491,-0.2512,-0.2508,-0.2541,-0.2533,-0.2551,-0.2556,-0.2549,-0.2544,-0.254,-0.2571,-0.2574,-0.2578,-0.2565,-0.2567,-0.2536,-0.2536,-0.2535,-0.2535,0,-0.2354,-0.2385,-0.2396,-0.2447,-0.246,-0.2478,-0.25,-0.2524,-0.2545,-0.2564,-0.259,-0.258,-0.2599,-0.2592,-0.2579,-0.2597,-0.258,-0.2578,-0.2561,-0.2586,-0.257,-0.2572,-0.2539,-0.2538,-0.2537,-0.2537,0,0,-0.2296,-0.2395,-0.2402,-0.2456,-0.2492,-0.2513,-0.2551,-0.2587,-0.2632,-0.2634,-0.2683,-0.2671,-0.266,-0.2657,-0.2638,-0.2635,-0.2646,-0.2614,-0.2613,-0.2605,-0.2655,-0.2509,-0.2496,-0.2652,-0.2653,-0.2653,-0.2631,0,-0.2319,-0.2416,-0.2446,-0.2529,-0.2582,-0.2598,-0.2644,-0.2673,-0.2692,-0.2734,-0.2706,-0.2735,-0.2686,-0.2693,-0.2681,-0.266,-0.2654,-0.2651,-0.2628,-0.2627,-0.2498,-0.2495,-0.2347,-0.2302,-0.2632,-0.2633,-0.2633,0,-0.2322,-0.2409,-0.25,-0.2616,-0.2636,-0.2681,-0.2752,-0.2787,-0.2822,-0.2834,-0.2833,-0.2818,-0.28,-0.2763,-0.2724,-0.2725,-0.2692,-0.2667,-0.2666,-0.2515,-0.2484,-0.2332,-0.2293,-0.2636,-0.2635,-0.2635,-0.2635,0,-0.2295,-0.2431,-0.2516,-0.2552,-0.2677,-0.2725,-0.2773,-0.2825,-0.286,-0.2892,-0.2911,-0.2892,-0.2878,-0.284,-0.2744,-0.2754,-0.2691,-0.2709,-0.2546,-0.2536,-0.2395,-0.2369,-0.2695,-0.2695,-0.2695,-0.2695,-0.2695,0,-0.2291,-0.2366,-0.2529,-0.2575,-0.27,-0.2758,-0.2848,-0.2891,-0.2937,-0.2952,-0.2958,-0.2934,-0.2897,-0.2839,-0.2771,-0.2628,-0.271,-0.2539,-0.2517,-0.2402,-0.2378,-0.2659,-0.2655,-0.2694,-0.2694,-0.2694,-0.2694,0,-0.2251,-0.234,-0.247,-0.2636,-0.269,-0.2779,-0.2895,-0.2942,-0.2988,-0.3001,-0.3005,-0.2979,-0.2865,-0.2797,-0.2718,-0.2643,-0.2545,-0.248,-0.2322,-0.2281,-0.2387,-0.2386,-0.2329,-0.2323,-0.2319,-0.2315,-0.2312,0,-0.2234,-0.2291,-0.2508,-0.2582,-0.2666,-0.2798,-0.2865,-0.2954,-0.2971,-0.2982,-0.296,-0.2891,-0.2741,-0.2568,-0.2446,-0.23,-0.2381,-0.2107,-0.2095,-0.2363,-0.2349,-0.2355,-0.236,-0.1937,-0.1931,-0.1926,-0.1922,0,-0.2195,-0.2275,-0.2388,-0.2553,-0.2658,-0.2754,-0.2836,-0.2836,-0.2878,-0.2843,-0.2709,-0.2598,-0.2482,-0.2225,-0.2084,-0.1988,-0.2117,-0.1999,-0.2331,-0.2034,-0.1986,-0.1975,-0.1995,-0.1878,-0.1883,-0.1886,-0.1888,-0.189,-0.2143,-0.2222,-0.234,-0.2484,-0.2588,-0.2578,-0.2517,-0.2553,-0.2459,-0.231,-0.2379,-0.2169,-0.2176,-0.1822,-0.1698,-0.1638,-0.1784,-0.1733,-0.1752,-0.1776,-0.1715,-0.166,-0.1479,-0.1481,-0.1483,-0.1485,-0.1486,0,-0.2024,-0.2114,-0.2239,-0.2329,-0.2301,-0.2434,-0.2385,-0.222,-0.1968,-0.201,-0.1852,-0.1606,-0.1452,-0.1468,-0.1323,-0.1288,-0.132,-0.1223,-0.1293,-0.1336,-0.1375,-0.1299,-0.095,-0.0949,-0.0947,-0.0945,0,0,-0.1957,-0.1984,-0.2055,-0.1968,-0.2012,-0.1818,-0.1698,-0.1537,-0.1469,-0.1268,-0.1232,-0.135,-0.1426,-0.1182,-0.1132,-0.1026,-0.1167,-0.0966,-0.14,-0.1526,-0.1562,-0.1672,-0.1601,0,0,0,0,0]},{"header":{"parameterUnit":"m.s-1","parameterCategory":2,"la1":30.2991,"la2":30.254,"lo1":-89.0895,"lo2":-89.0444,"dy":0.0017,"dx":0.0017,"nx":28,"ny":28,"refTime":"2024-08-31T21:00:00:Z","depth":"2","parameterNumber":3,"parameterNumberName":"V-component_of_CURRENTS"},"data":[0,0,0,0,0,0,0,0,0,0,0,0,0,0,0,0,0,0,0,0,0,0,0,0,0,0,0,0,0,0,0,0,0,0,0,0,0,0,0,0,0,0,0,0,0,0,0,0,0,0,0,0,0,0,0,0,0,0,-0.014,-0.0139,0,-0.0034,-0.0033,-0.0032,0.0002,0.0002,0.0002,0.0002,0.0086,0.0089,0.0091,0,0,0,0,0,0,0,0,0,0,0,0,0,-0.0273,-0.0271,-0.014,-0.0139,-0.0137,-0.0034,-0.0033,-0.0032,0.0002,0.0002,0.0002,0.0001,0.0086,0.0089,0.0092,0,0,0,0,0,0,0,0,0,0,0,0,0,-0.0199,-0.0271,-0.0141,-0.0106,-0.0102,-0.0035,-0.0033,-0.0032,0.0002,0.0002,0.0002,0.0001,0.0085,0.0088,0.0092,0.0123,0,0,0.0103,0.0105,0,0,0,0,0,0,0,0,-0.0203,-0.0194,-0.0113,-0.0108,-0.0103,-0.0027,-0.0049,0.002,0.0002,-0.004,0.0002,0.0001,0.0048,0.0055,0.0073,0.0127,0.013,0.0104,0.0106,0.0108,0.0109,0,0,0,0,0,0,0,-0.0208,-0.0198,-0.0101,-0.0111,-0.0105,-0.0082,-0.0072,-0.0035,0.0003,-0.0036,-0.0033,-0.0017,0.005,0.0069,0.0075,0.0131,0.0104,0.0107,0.0109,0.0111,0.0203,0.0203,0,0,0,0,0,0,-0.0218,-0.0203,-0.0104,-0.0097,-0.0152,-0.0079,-0.0068,-0.0053,0.0003,0.0012,-0.0017,-0.0016,0.0063,0.007,0.0078,0.0096,0.0108,0.0111,0.0113,0.0203,0.0203,0.0203,0,0,0,0,0,0,-0.0221,-0.021,-0.0108,-0.0146,-0.0131,-0.0076,-0.006,-0.0051,-0.0039,0.0018,0.0026,-0.0015,0.0063,0.0073,0.0102,0.01,0.0113,0.0116,0.0203,0.0203,0.0203,0.0145,0,0,0,0,0,0,-0.0225,-0.0212,-0.0213,-0.0147,-0.0129,-0.0084,-0.0059,-0.0049,-0.0027,-0.0025,0.0023,0.0031,0.0063,0.0096,0.0105,0.0105,0.0119,0.0202,0.0203,0.0203,0.0147,0.0143,0.0141,0,0,0,0,0,-0.0231,-0.023,-0.0214,-0.0202,-0.013,-0.0084,-0.0074,-0.0038,-0.0027,-0.0028,0.0007,0.0029,0.0105,0.0099,0.011,0.0111,0.0202,0.0203,0.0203,0.0148,0.0144,0.0141,0,0,0,0,0,0,-0.0288,-0.0224,-0.0206,-0.0186,-0.0146,-0.0078,-0.0072,-0.0044,-0.0015,-0.0016,0.0033,0.0043,0.0068,0.01,0.0092,0.014,0.0157,0.016,0.0112,0.0109,0.0105,0.009,0.0122,0,0,0,0,0,-0.03,-0.0288,-0.0221,-0.021,-0.019,-0.0134,-0.0113,-0.0086,-0.0044,-0.0032,0.0003,0.0043,0.0081,0.01,0.0135,0.0163,0.02,0.0172,0.0169,0.0166,0.0161,0.0202,0.0202,0.0205,0.0205,0.0205,0,0,-0.0321,-0.0283,-0.0277,-0.0222,-0.0187,-0.0168,-0.0124,-0.0096,-0.0079,-0.0027,-0.0007,0.003,0.0086,0.0114,0.0128,0.0139,0.0189,0.0166,0.0163,0.016,0.0203,0.0202,0.0202,0.0205,0.0205,0.0205,0,0,-0.035,-0.0321,-0.0318,-0.029,-0.0239,-0.0201,-0.0198,-0.0138,-0.0113,-0.0082,-0.0039,-0.0005,0.0049,0.0091,0.0121,0.0124,0.0168,0.0133,0.0109,0.0148,0.0148,0.0148,0.0211,0.0218,0.0135,0.0135,0.0135,0,-0.0379,-0.0363,-0.0313,-0.0302,-0.0286,-0.0222,-0.0219,-0.0179,-0.012,-0.0095,-0.0088,-0.0001,0.0041,0.0091,0.0092,0.0116,0.015,0.0115,0.0142,0.0143,0.0145,0.0209,0.0217,0.0132,0.0132,0.0133,0.0133,0,-0.04,-0.0394,-0.0391,-0.0359,-0.0336,-0.0325,-0.0261,-0.0236,-0.0201,-0.0154,-0.0105,-0.0046,0.0005,0.0027,0.0061,0.0096,0.0122,0.0129,0.0147,0.014,0.021,0.0219,0.0128,0.0129,0.013,0.0131,0,0,-0.0454,-0.0414,-0.0418,-0.0419,-0.0368,-0.0352,-0.032,-0.0267,-0.0243,-0.0189,-0.0155,-0.0086,-0.0052,-0.0017,0.0032,0.0069,0.0116,0.0096,0.0099,0.015,0.0219,0.0184,0.0192,0.012,0.012,0.0121,0.027,0,-0.049,-0.0498,-0.0459,-0.0473,-0.0476,-0.0413,-0.0388,-0.0333,-0.0276,-0.0228,-0.0148,-0.0102,-0.0066,-0.0044,-0.0002,0.0092,0.0134,0.0076,0.0226,0.0231,0.0192,0.0198,0.0189,0.0315,0.028,0.0281,0.0282,0,-0.0528,-0.0531,-0.0553,-0.0533,-0.0526,-0.0521,-0.0474,-0.0442,-0.0345,-0.0296,-0.0233,-0.0164,-0.008,-0.0066,0.0083,0.0042,0.0118,0.0186,0.0193,0.0183,0.0211,0.0314,0.0334,0.0298,0.0296,0.0295,0.0294,0,-0.0607,-0.0598,-0.0623,-0.062,-0.0583,-0.0577,-0.0553,-0.0473,-0.0436,-0.0342,-0.0296,-0.0196,-0.0125,-0.0035,0.0113,0.0097,0.0272,0.0274,0.032,0.0321,0.0354,0.0354,0.0358,0.0357,0.0357,0.0357,0.0356,0,-0.067,-0.0689,-0.0666,-0.0686,-0.0714,-0.0656,-0.0653,-0.0603,-0.0518,-0.0467,-0.0348,-0.0277,-0.0118,0.0009,0.0111,0.0251,0.0277,0.0318,0.0348,0.0335,0.0332,0.0342,0.0338,0.0362,0.0361,0.036,0.0359,0,-0.0761,-0.0737,-0.0777,-0.0762,-0.0758,-0.0788,-0.0736,-0.0719,-0.0617,-0.0545,-0.0513,-0.0319,-0.0158,0.0002,0.0187,0.0262,0.0387,0.0425,0.0408,0.043,0.0415,0.0407,0.0493,0.0492,0.0492,0.0492,0.0492,0,-0.0801,-0.0835,-0.0863,-0.0895,-0.0895,-0.0906,-0.0901,-0.0802,-0.0757,-0.0565,-0.0527,-0.0341,-0.0217,0.0051,0.0219,0.0392,0.0399,0.048,0.0427,0.0404,0.0425,0.0417,0.0409,0.048,0.048,0.048,0.0479,0,-0.0902,-0.0919,-0.0962,-0.1036,-0.1056,-0.1049,-0.1016,-0.0991,-0.0841,-0.0754,-0.0602,-0.0492,-0.0199,0.001,0.0247,0.034,0.0442,0.0477,0.0486,0.0413,0.0394,0.0414,0.0407,0.0478,0.0478,0.0478,0.0478,0.0478,-0.098,-0.1056,-0.112,-0.1186,-0.1196,-0.1176,-0.1155,-0.1081,-0.1012,-0.0812,-0.07,-0.0485,-0.0231,0.0088,0.026,0.043,0.0418,0.0473,0.0474,0.0474,0.0412,0.0389,0.0465,0.0465,0.0465,0.0465,0.0465,0,-0.1079,-0.1162,-0.1252,-0.1308,-0.1322,-0.1282,-0.1208,-0.1125,-0.1034,-0.0858,-0.0707,-0.0445,-0.0193,0.0064,0.0329,0.0463,0.047,0.0482,0.0486,0.0487,0.0487,0.0425,0.0482,0.0483,0.0483,0.0483,0,0,-0.1139,-0.127,-0.1328,-0.1403,-0.1406,-0.133,-0.127,-0.1141,-0.0982,-0.0813,-0.0647,-0.0439,-0.0152,0.0035,0.023,0.0375,0.0386,0.0376,0.0349,0.0333,0.0332,0.0471,0.0373,0,0,0,0,0]}],[{"header":{"parameterUnit":"m.s-1","parameterCategory":2,"la1":30.2991,"la2":30.254,"lo1":-89.0895,"lo2":-89.0444,"dy":0.0017,"dx":0.0017,"nx":28,"ny":28,"refTime":"2024-08-31T21:00:00:Z","depth":"4","parameterNumber":2,"parameterNumberName":"U-component_of_CURRENTS"},"data":[0,0,0,0,0,0,0,0,0,0,0,0,0,0,0,0,0,0,0,0,0,0,0,0,0,0,0,0,0,0,0,0,0,0,0,0,0,0,0,0,0,0,0,0,0,0,0,0,0,0,0,0,0,0,0,0,0,0,-0.0728,-0.0729,0,-0.0832,-0.0833,-0.0833,-0.0873,-0.0873,-0.0874,-0.0874,-0.0956,-0.0958,-0.096,0,0,0,0,0,0,0,0,0,0,0,0,0,-0.0605,-0.0606,-0.0727,-0.0729,-0.0731,-0.0832,-0.0833,-0.0834,-0.0873,-0.0873,-0.0874,-0.0874,-0.0955,-0.0958,-0.096,0,0,0,0,0,0,0,0,0,0,0,0,0,-0.0672,-0.0606,-0.0727,-0.0768,-0.0773,-0.0832,-0.0833,-0.0834,-0.0873,-0.0873,-0.0874,-0.0874,-0.0955,-0.0958,-0.096,-0.0968,0,0,-0.0969,-0.097,0,0,0,0,0,0,0,0,-0.0668,-0.0675,-0.076,-0.0766,-0.0772,-0.0846,-0.082,-0.088,-0.0873,-0.0828,-0.0874,-0.0874,-0.0921,-0.0927,-0.0936,-0.0972,-0.0976,-0.0969,-0.0971,-0.0972,-0.0973,0,0,0,0,0,0,0,-0.0663,-0.0671,-0.0762,-0.0762,-0.0769,-0.0797,-0.0806,-0.0831,-0.0865,-0.0832,-0.0836,-0.0859,-0.0923,-0.0933,-0.0938,-0.0977,-0.0969,-0.0972,-0.0973,-0.0975,-0.1141,-0.1143,0,0,0,0,0,0,-0.0661,-0.0667,-0.0759,-0.0766,-0.0728,-0.0799,-0.0808,-0.0816,-0.0865,-0.0875,-0.0859,-0.0861,-0.0928,-0.0935,-0.0941,-0.1037,-0.0972,-0.0975,-0.0976,-0.1138,-0.1141,-0.1144,0,0,0,0,0,0,-0.0658,-0.0668,-0.0755,-0.0725,-0.0739,-0.0801,-0.0809,-0.0818,-0.0851,-0.0887,-0.0896,-0.0886,-0.0929,-0.0937,-0.0992,-0.1037,-0.0976,-0.0979,-0.1135,-0.1139,-0.1143,-0.1174,0,0,0,0,0,0,-0.0654,-0.0665,-0.0683,-0.0724,-0.0741,-0.0807,-0.081,-0.082,-0.0866,-0.087,-0.0913,-0.092,-0.093,-0.0988,-0.0995,-0.104,-0.0981,-0.1131,-0.1137,-0.1142,-0.117,-0.1179,-0.1187,0,0,0,0,0,-0.0649,-0.0665,-0.0682,-0.0695,-0.0757,-0.0809,-0.0819,-0.086,-0.0867,-0.0889,-0.0921,-0.092,-0.1026,-0.0991,-0.0999,-0.1046,-0.1129,-0.1135,-0.1141,-0.1166,-0.1177,-0.1186,0,0,0,0,0,0,-0.0634,-0.0673,-0.0692,-0.0724,-0.0774,-0.0818,-0.0845,-0.0872,-0.0913,-0.0925,-0.0941,-0.0951,-0.101,-0.1032,-0.0994,-0.1114,-0.1083,-0.1091,-0.1099,-0.111,-0.1118,-0.115,-0.0983,0,0,0,0,0,-0.0636,-0.0646,-0.0704,-0.0731,-0.0754,-0.0802,-0.0832,-0.0869,-0.0909,-0.0928,-0.0962,-0.1006,-0.1038,-0.1076,-0.1102,-0.117,-0.1172,-0.1213,-0.1221,-0.1228,-0.1264,-0.13,-0.1314,-0.1164,-0.1164,-0.1164,0,0,-0.0643,-0.0663,-0.0675,-0.0727,-0.0761,-0.0808,-0.0819,-0.0878,-0.0921,-0.0931,-0.0997,-0.1023,-0.1057,-0.1124,-0.1157,-0.1155,-0.1265,-0.1236,-0.1241,-0.1274,-0.1308,-0.1322,-0.1335,-0.1169,-0.1168,-0.1167,0,0,-0.0646,-0.0674,-0.0684,-0.0723,-0.079,-0.0829,-0.0851,-0.0919,-0.0951,-0.1023,-0.1034,-0.1106,-0.1159,-0.1208,-0.1231,-0.1312,-0.1289,-0.1318,-0.1409,-0.1442,-0.1454,-0.1465,-0.1444,-0.1453,-0.1345,-0.1345,-0.1345,0,-0.065,-0.0667,-0.0702,-0.0727,-0.0777,-0.0838,-0.0888,-0.0925,-0.101,-0.1053,-0.1055,-0.1174,-0.1206,-0.1291,-0.1335,-0.1332,-0.1324,-0.1355,-0.145,-0.1461,-0.1472,-0.1448,-0.1457,-0.1347,-0.1347,-0.1347,-0.1347,0,-0.0665,-0.0686,-0.0697,-0.0746,-0.0816,-0.086,-0.0941,-0.0998,-0.1055,-0.1113,-0.1211,-0.1263,-0.1344,-0.1369,-0.1384,-0.1487,-0.1443,-0.143,-0.1414,-0.1488,-0.1458,-0.1467,-0.1351,-0.135,-0.1349,-0.1349,0,0,-0.064,-0.0689,-0.0696,-0.0717,-0.0831,-0.088,-0.097,-0.107,-0.1133,-0.1222,-0.1312,-0.1405,-0.1452,-0.1486,-0.1512,-0.1581,-0.1641,-0.156,-0.156,-0.1521,-0.1674,-0.1547,-0.1543,-0.1633,-0.1636,-0.1639,-0.1606,0,-0.0633,-0.0668,-0.072,-0.0784,-0.0821,-0.0916,-0.0994,-0.111,-0.1206,-0.1305,-0.1389,-0.1486,-0.1482,-0.1546,-0.1603,-0.1659,-0.1675,-0.1649,-0.1627,-0.1626,-0.149,-0.1555,-0.1648,-0.1612,-0.1614,-0.1616,-0.1617,0,-0.0632,-0.0658,-0.0719,-0.0794,-0.0824,-0.0891,-0.1052,-0.1127,-0.1287,-0.1366,-0.1487,-0.1555,-0.1697,-0.1664,-0.1763,-0.1743,-0.1711,-0.1727,-0.1725,-0.1614,-0.1518,-0.1538,-0.1633,-0.1632,-0.163,-0.1629,-0.1628,0,-0.0599,-0.0651,-0.0695,-0.0726,-0.0841,-0.0901,-0.0984,-0.1164,-0.1242,-0.1432,-0.1504,-0.166,-0.1731,-0.1777,-0.18,-0.1803,-0.1857,-0.185,-0.1674,-0.1662,-0.1767,-0.1756,-0.1861,-0.1861,-0.1861,-0.1861,-0.1861,0,-0.0564,-0.0584,-0.0673,-0.0692,-0.0763,-0.0886,-0.1009,-0.1098,-0.1276,-0.1331,-0.1521,-0.1564,-0.1767,-0.1807,-0.1821,-0.1769,-0.1849,-0.1708,-0.1666,-0.1774,-0.1766,-0.1769,-0.1759,-0.1859,-0.186,-0.186,-0.186,0,-0.0503,-0.0555,-0.0585,-0.0696,-0.074,-0.0802,-0.0984,-0.1052,-0.1226,-0.13,-0.1362,-0.1544,-0.1621,-0.173,-0.1817,-0.1758,-0.176,-0.1675,-0.1757,-0.1715,-0.1536,-0.1528,-0.1553,-0.1549,-0.1545,-0.1542,-0.154,0,-0.0465,-0.048,-0.0568,-0.0598,-0.064,-0.0762,-0.0831,-0.1018,-0.1075,-0.1212,-0.1195,-0.1355,-0.1435,-0.149,-0.1609,-0.1653,-0.1603,-0.1577,-0.1617,-0.1559,-0.1515,-0.1513,-0.151,-0.1534,-0.1533,-0.1532,-0.1531,0,-0.0384,-0.0416,-0.0433,-0.0513,-0.057,-0.0634,-0.0726,-0.0773,-0.0913,-0.1041,-0.1075,-0.1174,-0.1232,-0.1402,-0.1438,-0.1439,-0.1638,-0.154,-0.1548,-0.1585,-0.1535,-0.1495,-0.1497,-0.1518,-0.152,-0.1521,-0.1522,0,-0.0308,-0.0288,-0.0333,-0.0393,-0.0461,-0.0485,-0.0567,-0.0632,-0.0734,-0.0875,-0.085,-0.1004,-0.116,-0.1272,-0.1278,-0.134,-0.1348,-0.1321,-0.1342,-0.1357,-0.1319,-0.1229,-0.1099,0,0,0,0,0,-0.0228,-0.0193,-0.0224,-0.028,-0.0351,-0.0391,-0.0473,-0.0557,-0.0662,-0.0649,-0.078,-0.0829,-0.0955,-0.1068,-0.1106,-0.1183,-0.1334,-0.1215,-0.1307,-0.1448,-0.1463,-0.1443,0,0,0,0,0,0,-0.0168,-0.016,-0.017,-0.0192,-0.0216,-0.0271,-0.0313,-0.0374,-0.043,-0.0549,-0.067,-0.075,-0.094,-0.0931,-0.1081,-0.1107,-0.1142,-0.1324,-0.1321,-0.144,-0.1453,-0.1465,-0.145,0,0,0,0,0]},{"header":{"parameterUnit":"m.s-1","parameterCategory":2,"la1":30.2991,"la2":30.254,"lo1":-89.0895,"lo2":-89.0444,"dy":0.0017,"dx":0.0017,"nx":28,"ny":28,"refTime":"2024-08-31T21:00:00:Z","depth":"4","parameterNumber":3,"parameterNumberName":"V-component_of_CURRENTS"},"data":[0,0,0,0,0,0,0,0,0,0,0,0,0,0,0,0,0,0,0,0,0,0,0,0,0,0,0,0,0,0,0,0,0,0,0,0,0,0,0,0,0,0,0,0,0,0,0,0,0,0,0,0,0,0,0,0,0,0,-0.0256,-0.0256,0,-0.0241,-0.0241,-0.0242,-0.0221,-0.022,-0.0219,-0.0219,-0.0183,-0.0183,-0.0183,0,0,0,0,0,0,0,0,0,0,0,0,0,-0.0249,-0.0249,-0.0256,-0.0256,-0.0256,-0.0241,-0.0241,-0.0242,-0.0221,-0.022,-0.0219,-0.0219,-0.0184,-0.0183,-0.0183,0,0,0,0,0,0,0,0,0,0,0,0,0,-0.0247,-0.025,-0.0256,-0.0242,-0.024,-0.0241,-0.0241,-0.0242,-0.0221,-0.022,-0.0219,-0.0218,-0.0184,-0.0183,-0.0183,-0.0196,0,0,-0.0181,-0.018,0,0,0,0,0,0,0,0,-0.0247,-0.0248,-0.0244,-0.0243,-0.0241,-0.023,-0.0226,-0.0224,-0.0221,-0.0231,-0.0219,-0.0218,-0.0196,-0.0195,-0.0197,-0.0194,-0.0193,-0.0181,-0.018,-0.018,-0.018,0,0,0,0,0,0,0,-0.0248,-0.0248,-0.0253,-0.0244,-0.0242,-0.023,-0.0229,-0.0226,-0.022,-0.023,-0.0228,-0.0223,-0.0195,-0.0198,-0.0196,-0.0192,-0.0181,-0.018,-0.018,-0.0179,-0.0166,-0.0166,0,0,0,0,0,0,-0.0247,-0.0249,-0.0253,-0.0252,-0.0239,-0.023,-0.023,-0.0236,-0.022,-0.0216,-0.0223,-0.0222,-0.0199,-0.0197,-0.0195,-0.0209,-0.018,-0.0179,-0.0179,-0.0166,-0.0166,-0.0166,0,0,0,0,0,0,-0.0247,-0.0248,-0.0254,-0.0247,-0.0247,-0.0231,-0.0239,-0.0236,-0.0239,-0.0215,-0.0211,-0.0228,-0.0199,-0.0196,-0.0191,-0.0208,-0.0179,-0.0179,-0.0166,-0.0166,-0.0166,-0.0239,0,0,0,0,0,0,-0.0247,-0.0248,-0.0256,-0.0248,-0.0247,-0.0258,-0.0239,-0.0237,-0.0236,-0.0234,-0.0218,-0.0214,-0.0198,-0.0193,-0.0191,-0.0206,-0.0178,-0.0166,-0.0166,-0.0166,-0.0236,-0.0241,-0.0245,0,0,0,0,0,-0.0247,-0.0254,-0.0257,-0.0257,-0.0257,-0.0259,-0.0258,-0.0245,-0.0237,-0.0244,-0.023,-0.0215,-0.0191,-0.0193,-0.0191,-0.0206,-0.0166,-0.0166,-0.0166,-0.0234,-0.024,-0.0245,0,0,0,0,0,0,-0.0248,-0.0253,-0.0255,-0.0262,-0.0264,-0.0254,-0.0256,-0.0251,-0.0248,-0.0246,-0.0223,-0.0218,-0.0223,-0.0199,-0.0201,-0.0198,-0.0173,-0.0173,-0.0226,-0.0231,-0.0235,-0.0222,-0.0178,0,0,0,0,0,-0.0255,-0.0268,-0.0266,-0.0274,-0.0276,-0.0271,-0.027,-0.0267,-0.0259,-0.0257,-0.0244,-0.0227,-0.0222,-0.0214,-0.0206,-0.0207,-0.0173,-0.0211,-0.0215,-0.022,-0.0205,-0.016,-0.016,-0.0166,-0.0166,-0.0166,0,0,-0.0256,-0.0262,-0.0267,-0.0276,-0.0276,-0.0294,-0.0269,-0.0274,-0.0294,-0.0254,-0.027,-0.025,-0.0227,-0.0232,-0.023,-0.0213,-0.0206,-0.022,-0.0224,-0.0206,-0.016,-0.016,-0.0159,-0.0167,-0.0167,-0.0167,0,0,-0.027,-0.0273,-0.0291,-0.0302,-0.0309,-0.0309,-0.0314,-0.0312,-0.0315,-0.0327,-0.0305,-0.028,-0.0281,-0.0256,-0.0247,-0.0266,-0.0238,-0.0273,-0.0282,-0.024,-0.0239,-0.0237,-0.0224,-0.022,-0.0268,-0.0268,-0.0268,0,-0.0273,-0.03,-0.0295,-0.032,-0.0336,-0.0321,-0.0351,-0.0356,-0.0353,-0.0361,-0.0339,-0.0313,-0.0287,-0.0282,-0.0281,-0.0277,-0.0259,-0.027,-0.0246,-0.0244,-0.0241,-0.0227,-0.0223,-0.0272,-0.0271,-0.0271,-0.027,0,-0.0303,-0.0331,-0.0341,-0.0376,-0.0392,-0.0412,-0.0422,-0.0433,-0.043,-0.043,-0.0423,-0.0371,-0.0348,-0.0338,-0.0315,-0.029,-0.0289,-0.0268,-0.0237,-0.0245,-0.023,-0.0224,-0.0277,-0.0275,-0.0274,-0.0273,0,0,-0.0297,-0.0354,-0.0359,-0.0398,-0.0429,-0.0447,-0.0482,-0.0509,-0.0534,-0.0503,-0.0508,-0.0468,-0.0424,-0.0406,-0.0364,-0.0307,-0.0277,-0.0278,-0.0275,-0.0273,-0.021,-0.0193,-0.0185,-0.0258,-0.0257,-0.0256,-0.0218,0,-0.0327,-0.0393,-0.0412,-0.0481,-0.052,-0.0532,-0.0574,-0.0596,-0.0596,-0.0593,-0.0524,-0.051,-0.046,-0.0433,-0.0376,-0.0289,-0.0259,-0.029,-0.0193,-0.019,-0.018,-0.0176,-0.0251,-0.0214,-0.0212,-0.0211,-0.021,0,-0.0352,-0.0401,-0.0477,-0.0559,-0.0576,-0.0615,-0.0675,-0.071,-0.0707,-0.0695,-0.0649,-0.0596,-0.0504,-0.0454,-0.032,-0.0347,-0.029,-0.0221,-0.0218,-0.0165,-0.0161,-0.0193,-0.0199,-0.02,-0.02,-0.0201,-0.0202,0,-0.0363,-0.0445,-0.0514,-0.0542,-0.0626,-0.0666,-0.0708,-0.0744,-0.0784,-0.0744,-0.0745,-0.0639,-0.0574,-0.0464,-0.0327,-0.0324,-0.018,-0.0164,-0.0109,-0.0109,-0.0105,-0.0106,-0.0092,-0.0092,-0.0093,-0.0093,-0.0093,0,-0.039,-0.0443,-0.0529,-0.0569,-0.0664,-0.0707,-0.0792,-0.0811,-0.0836,-0.0853,-0.0796,-0.0756,-0.0569,-0.0469,-0.0349,-0.0205,-0.0207,-0.0102,-0.0087,-0.0141,-0.0147,-0.0102,-0.0104,-0.0091,-0.0092,-0.0092,-0.0092,0,-0.0392,-0.0446,-0.0538,-0.0639,-0.0675,-0.0747,-0.0856,-0.0903,-0.0929,-0.0934,-0.0916,-0.0832,-0.0669,-0.0521,-0.0319,-0.0241,-0.0097,-0.0066,-0.0155,-0.0147,-0.0055,-0.0061,0.0015,0.0017,0.0018,0.0018,0.0019,0,-0.0397,-0.0447,-0.0582,-0.0649,-0.07,-0.0807,-0.0874,-0.0934,-0.0955,-0.0964,-0.0938,-0.083,-0.0736,-0.0469,-0.0306,-0.0097,-0.0075,-0.0039,-0.0015,-0.0046,-0.0039,-0.0046,-0.0053,0.0021,0.0021,0.0021,0.0021,0,-0.041,-0.0463,-0.0538,-0.0677,-0.0768,-0.0861,-0.0933,-0.0956,-0.0983,-0.1018,-0.0922,-0.0803,-0.0638,-0.0423,-0.028,-0.0131,-0.0062,-0.0028,-0.0029,-0.0006,-0.0039,-0.0034,-0.0042,0.0025,0.0024,0.0024,0.0024,0,-0.0408,-0.0465,-0.0569,-0.0693,-0.0802,-0.0859,-0.0917,-0.0918,-0.0951,-0.0929,-0.0882,-0.0746,-0.0651,-0.0444,-0.0301,-0.0152,-0.0108,-0.0077,-0.0075,-0.0077,-0.0105,-0.0161,-0.0113,0,0,0,0,0,-0.0389,-0.0451,-0.0573,-0.0695,-0.0801,-0.0849,-0.0922,-0.0958,-0.0969,-0.0889,-0.0884,-0.0719,-0.0505,-0.0434,-0.0272,-0.0279,-0.0092,-0.0091,-0.0056,0.0043,0.0039,0.0025,0,0,0,0,0,0,-0.038,-0.0471,-0.0554,-0.0665,-0.073,-0.0821,-0.0857,-0.0874,-0.0823,-0.0821,-0.0699,-0.0678,-0.0463,-0.0564,-0.0258,-0.0223,-0.0184,-0.0003,-0.0001,0.0045,0.0042,0.0039,0.0023,0,0,0,0,0]}]]